Location: Neuvy Saint Sepulchre
(46.5953°N, 1.8122°E)
Time: 09:37:19
(UTC+02:00)

ISS - Pass Details

Date: 17 July 2021
Orbit: 419 x 421 km, 51.6° (Epoch: 04 August)

Event Time Altitude Azimuth Distance (km) Brightness Sun altitude
Rises 04:33:52 0° 291° (WNW) 2,370 -0.1 -13.7°
Reaches altitude 10° 04:36:11 10° 278° (W) 1,502 -1.2 -13.5°
Maximum altitude 04:39:02 25° 220° (SW) 877 -2.8 -13.2°
Drops below altitude 10° 04:41:52 10° 163° (SSE) 1,493 -1.3 -12.9°
Sets 04:44:09 0° 149° (SSE) 2,352 -0.2 -12.6°
